LKMT Weather Reports


Display with metric or nautical units.
time (UTC)temp
F
wind
direction
speed
MPH
gust
MPH
rain 1hr
in
rain 24hr
in
rain mn
in
humidity
%
barometer
mb
20260508073231 50 20 7.0 0.0 0.00 0.00 0.00 93 1017.0
20260508072259 50 360 7.0 0.0 0.00 0.00 0.00 99
20260508070233 50 350 6.0 0.0 0.00 0.00 0.00 93 1017.0
20260508063224 50 350 7.0 0.0 0.00 0.00 0.00 93 1017.0
20260508062157 52 360 5.0 0.0 0.00 0.00 0.00 93
20260508060227 50 360 5.0 0.0 0.00 0.00 0.00 100 1017.0
20260508054303 50 350 5.0 0.0 0.00 0.00 0.00 93 1017.0
20260508053224 50 350 5.0 0.0 0.00 0.00 0.00 100 1016.0
20260508052156 50 0 2.0 0.0 0.00 0.00 0.00 99
20260508050232 50 0 2.0 0.0 0.00 0.00 0.00 93 1016.0
20260508044603 50 40 5.0 0.0 0.00 0.00 0.00 93 1016.0
20260508043224 50 50 5.0 0.0 0.00 0.00 0.00 93 1016.0
20260508042359 50 60 7.0 0.0 0.00 0.00 0.00 99
20260508040233 50 60 7.0 0.0 0.00 0.00 0.00 93 1016.0
20260508033224 50 360 9.0 0.0 0.00 0.00 0.00 93 1016.0
20260508032156 50 350 9.0 0.0 0.00 0.00 0.00 99
20260508030231 50 350 8.0 0.0 0.00 0.00 0.00 100 1016.0
20260508023224 50 350 7.0 0.0 0.00 0.00 0.00 100 1016.0
20260508022139 50 350 7.0 0.0 0.00 0.00 0.00 99
20260508020242 50 350 6.0 0.0 0.00 0.00 0.00 100 1015.0
20260508013224 50 360 7.0 0.0 0.00 0.00 0.00 100 1015.0
20260508012255 52 20 5.0 0.0 0.00 0.00 0.00 99
20260508010240 50 20 5.0 0.0 0.00 0.00 0.00 100 1015.0
20260508003223 50 30 6.0 0.0 0.00 0.00 0.00 100 1015.0
20260508002155 52 20 9.0 0.0 0.00 0.00 0.00 99
20260508000234 52 30 10.0 0.0 0.00 0.00 0.00 93 1015.0
20260507233224 52 360 8.0 0.0 0.00 0.00 0.00 93 1015.0
20260507232156 52 0 5.0 0.0 0.00 0.00 0.00 99
20260507230218 52 60 5.0 0.0 0.00 0.00 0.00 100 1015.0
20260507223224 52 360 6.0 0.0 0.00 0.00 0.00 100 1015.0
20260507222457 54 10 7.0 0.0 0.00 0.00 0.00 99
20260507220236 52 20 8.0 0.0 0.00 0.00 0.00 100 1015.0
20260507213223 54 360 9.0 0.0 0.00 0.00 0.00 93 1015.0
20260507212158 54 360 7.0 0.0 0.00 0.00 0.00 99
20260507210234 54 360 8.0 0.0 0.00 0.00 0.00 100 1015.0
20260507205104 54 360 8.0 0.0 0.00 0.00 0.00 100 1015.0
20260507204510 54 360 8.0 0.0 0.00 0.00 0.00 100 1015.0
20260507203223 54 320 6.0 0.0 0.00 0.00 0.00 100 1015.0
20260507202158 55 20 9.0 0.0 0.00 0.00 0.00 99
20260507201304 55 340 6.0 0.0 0.00 0.00 0.00 93 1014.0
20260507200234 55 30 9.0 0.0 0.00 0.00 0.00 93 1014.0
20260507193224 55 10 6.0 0.0 0.00 0.00 0.00 93 1014.0
20260507192259 59 350 7.0 0.0 0.00 0.00 0.00 77
20260507190226 59 340 10.0 0.0 0.00 0.00 0.00 77 1013.0
20260507183803 61 350 13.0 0.0 0.00 0.00 0.00 72 1013.0
20260507183303 61 360 10.0 0.0 0.00 0.00 0.00 72 1013.0
20260507182211 63 350 12.0 0.0 0.00 0.00 0.00 55
20260507180232 61 340 12.0 0.0 0.00 0.00 0.00 63 1012.0
20260507173238 64 190 6.0 0.0 0.00 0.00 0.00 52 1011.0
20260507172212 66 180 7.0 0.0 0.00 0.00 0.00 45
20260507170241 64 180 8.0 0.0 0.00 0.00 0.00 52 1011.0
20260507163237 64 220 9.0 0.0 0.00 0.00 0.00 55 1011.0
20260507162526 66 220 9.0 0.0 0.00 0.00 0.00 52
20260507160227 64 220 9.0 0.0 0.00 0.00 0.00 59 1011.0
20260507153230 64 220 13.0 0.0 0.00 0.00 0.00 59 1011.0
20260507152158 66 220 14.0 0.0 0.00 0.00 0.00 52
20260507150233 66 220 12.0 0.0 0.00 0.00 0.00 52 1011.0
20260507143231 66 240 13.0 0.0 0.00 0.00 0.00 52 1011.0
20260507142158 68 240 14.0 0.0 0.00 0.00 0.00 45
20260507140233 68 250 13.0 0.0 0.00 0.00 0.00 49 1011.0
20260507133231 66 230 13.0 0.0 0.00 0.00 0.00 48 1011.0
20260507132258 68 220 12.0 0.0 0.00 0.00 0.00 49
20260507130231 68 220 13.0 0.0 0.00 0.00 0.00 52 1011.0
20260507123231 68 210 14.0 0.0 0.00 0.00 0.00 52 1011.0
20260507122157 66 230 16.0 0.0 0.00 0.00 0.00 55
20260507120234 66 230 16.0 0.0 0.00 0.00 0.00 55 1011.0
20260507113230 66 220 14.0 0.0 0.00 0.00 0.00 55 1011.0
20260507112213 68 230 16.0 0.0 0.00 0.00 0.00 52
20260507110235 68 230 16.0 0.0 0.00 0.00 0.00 52 1011.0
20260507103231 68 220 16.0 0.0 0.00 0.00 0.00 52 1011.0
20260507102356 68 240 16.0 0.0 0.00 0.00 0.00 52
20260507100225 68 240 16.0 0.0 0.00 0.00 0.00 56 1011.0
20260507093230 68 220 16.0 0.0 0.00 0.00 0.00 56 1011.0
20260507092157 66 230 16.0 0.0 0.00 0.00 0.00 59
20260507090233 66 220 15.0 0.0 0.00 0.00 0.00 59 1011.0
20260507083231 64 230 14.0 0.0 0.00 0.00 0.00 63 1010.0
20260507082156 64 220 18.0 0.0 0.00 0.00 0.00 63
20260507080233 64 220 17.0 0.0 0.00 0.00 0.00 67 1010.0